Theta_e
315 315 315 316 316 317 321 324 321 322 321 317 318 318 319 320 321 321 321 320 319 318 316 316 317 317 319 320 321 321 320 320 321 319 320 323 322 321 321 321 320 317 315 316 317 320 324 326 326 328 328 329 331 332 332 332 331 330 329 327 325 326 328 328 328 329 331 332 333 334 334 335 335 335 334 330 327 326 326 326 326 329 331 332 332 333 334 333 334 333 334 335 334 334 333 331 329
314 315 315 316 317 319 323 324 319 319 318 315 317 318 318 320 320 321 320 320 320 318 316 316 316 317 318 319 319 320 321 321 321 321 321 321 321 322 321 321 320 319 316 314 316 318 322 325 324 327 328 328 330 332 332 332 332 332 330 328 326 327 329 331 331 332 332 332 334 335 335 336 336 336 333 331 329 326 326 325 325 327 329 330 330 330 330 331 332 333 334 335 334 333 333 331 329
315 315 314 316 320 321 323 323 318 317 316 314 316 318 318 319 319 320 319 319 319 316 316 317 316 317 318 319 319 320 322 321 320 320 321 320 321 322 322 322 321 321 317 314 315 317 320 322 323 325 327 328 329 331 331 331 332 332 332 330 328 327 328 331 332 333 333 334 335 336 336 337 337 336 333 332 330 327 326 325 325 326 327 328 328 326 326 327 328 329 330 332 331 328 325 323 321
315 316 314 317 322 322 322 322 319 316 314 314 314 318 318 318 319 319 319 319 318 316 316 318 318 318 318 320 320 320 321 321 320 320 321 321 321 322 322 322 321 322 319 315 314 315 317 319 321 324 327 328 329 330 329 330 331 331 331 330 329 328 327 329 332 333 334 334 335 336 336 337 337 335 333 332 331 328 325 324 325 325 325 326 326 325 324 323 324 325 324 324 324 320 316 314 313
315 316 315 317 322 323 322 321 321 317 315 315 314 317 319 318 318 319 320 318 317 317 316 318 320 319 318 319 319 320 321 320 320 320 321 321 321 322 322 322 322 322 321 317 315 315 316 317 320 324 327 328 329 330 329 329 330 330 331 330 329 329 328 328 330 332 334 335 335 336 336 336 335 334 332 331 330 328 323 321 322 323 323 323 323 321 319 317 317 318 318 316 315 313 312 311 311
315 316 316 317 321 322 321 319 319 318 318 318 316 317 319 318 319 319 319 318 317 317 316 317 319 318 318 318 318 320 320 319 320 319 319 320 320 321 322 322 322 322 321 319 316 315 314 316 319 323 327 328 328 329 329 329 330 329 329 329 329 329 329 329 331 333 334 334 335 335 335 334 334 333 331 328 326 325 321 318 318 318 318 317 316 315 313 312 312 312 312 312 311 311 310 310 309
315 318 319 318 320 321 320 319 318 319 320 319 318 318 318 319 320 318 319 319 317 317 316 317 317 317 319 319 318 319 319 318 318 318 318 317 318 319 321 322 322 322 322 320 318 315 314 315 318 322 326 327 327 327 327 328 329 326 326 327 327 328 328 330 332 333 334 334 335 335 334 332 331 331 328 324 321 319 316 314 313 313 313 313 312 311 311 311 311 311 310 310 309 308 307 306 305
316 320 321 319 321 321 319 319 319 320 319 319 319 319 319 320 320 318 319 318 318 317 317 317 316 317 319 318 318 319 318 318 317 317 317 316 317 318 320 321 322 322 322 321 318 316 315 315 316 320 323 324 325 325 327 329 327 323 323 324 325 327 327 329 332 333 334 334 334 333 332 329 328 326 323 319 316 314 312 312 311 311 311 311 311 310 310 309 309 308 308 307 306 305 304 304 304
317 319 320 320 320 320 318 318 318 319 319 318 319 319 319 319 318 318 318 319 318 318 317 317 316 317 319 317 318 319 318 318 317 317 317 316 316 317 319 321 322 322 322 322 319 317 315 315 315 318 320 321 322 324 327 329 326 321 321 321 323 326 325 327 329 332 332 332 332 331 329 326 324 322 317 314 313 311 311 311 310 310 310 309 309 308 307 306 305 305 304 304 304 304 304 304 304
318 318 320 320 318 317 316 317 318 318 318 318 318 318 318 318 317 317 318 319 318 318 317 316 315 317 318 318 319 319 318 318 317 317 317 317 316 316 318 320 321 322 322 322 320 318 316 315 315 316 319 319 320 322 325 325 322 320 320 320 321 323 323 325 326 328 328 328 329 327 325 321 319 316 313 311 311 310 310 309 309 308 308 307 306 305 305 304 304 304 304 304 304 304 304 305 305
319 318 319 319 317 315 315 316 317 318 317 317 318 318 317 317 316 317 317 318 318 317 317 315 316 317 317 318 319 319 318 318 317 317 317 317 317 316 318 319 319 320 321 322 321 320 318 316 315 315 317 318 319 319 320 319 318 318 319 319 319 319 321 322 323 324 324 325 326 324 319 317 315 312 311 310 309 309 308 308 307 306 305 304 304 304 304 303 304 304 304 304 304 305 305 306 307
320 320 318 318 317 316 317 317 317 319 319 319 319 318 316 316 316 318 318 318 318 317 317 316 317 317 317 319 319 319 318 317 317 317 317 317 317 316 317 318 318 318 320 322 322 320 318 317 315 315 315 315 316 317 317 316 316 316 317 318 317 317 318 318 319 319 319 320 321 318 315 314 312 310 309 309 308 308 307 307 305 304 304 303 304 303 303 304 304 304 304 305 306 307 307 308 308
320 322 319 317 318 318 318 317 318 319 319 320 319 317 315 316 317 318 318 318 317 317 318 317 317 317 318 319 319 318 318 318 317 317 317 317 317 317 317 318 317 317 318 320 321 321 319 318 316 315 315 314 314 315 315 315 314 314 315 315 315 315 315 314 315 314 314 314 314 313 313 311 310 309 309 308 308 307 306 305 304 304 304 303 303 303 303 304 304 305 306 306 307 307 307 308 307
319 320 318 318 318 318 318 317 319 318 318 319 318 316 315 316 317 317 317 318 318 318 318 317 316 316 318 319 319 319 318 317 317 317 317 317 317 317 317 317 317 316 317 318 320 321 320 318 317 316 315 314 314 313 314 314 313 314 313 313 313 313 313 313 313 312 312 311 311 311 311 310 309 309 308 307 306 305 304 304 304 304 303 303 303 303 303 303 304 306 307 307 307 307 307 307 307
317 319 319 319 318 318 318 318 320 318 318 318 317 315 315 316 316 316 316 317 318 318 317 317 316 317 318 319 319 319 318 317 317 317 317 317 317 317 317 317 317 317 317 317 317 319 320 319 318 317 316 315 314 313 314 314 314 313 313 312 313 313 313 313 312 312 311 310 310 310 309 309 308 308 307 305 304 304 304 304 304 303 303 303 303 303 304 304 306 306 306 306 306 306 306 306 306
317 319 319 319 319 318 318 319 318 317 318 318 316 315 316 316 315 315 316 316 317 317 316 317 316 317 318 318 318 318 317 317 317 317 317 316 316 316 317 316 317 317 317 317 316 317 318 319 318 317 316 316 315 314 314 314 313 313 312 313 313 313 313 313 312 311 310 310 309 309 309 308 307 306 305 304 304 304 304 304 303 303 303 303 303 304 304 306 306 306 306 306 306 306 306 306 306
318 319 320 318 318 318 318 318 317 317 318 318 316 314 316 316 315 315 316 315 315 316 316 316 316 316 317 317 317 317 317 317 317 317 317 316 316 316 316 316 317 317 317 317 316 316 316 317 318 317 316 316 315 314 314 314 313 313 312 313 313 313 313 312 312 310 309 309 309 308 308 307 306 305 304 303 303 304 304 304 303 304 304 304 304 304 305 306 306 306 306 306 306 306 306 306 306
318 319 319 317 319 319 318 319 318 317 317 318 317 314 315 316 316 315 315 315 315 316 316 316 316 317 317 317 317 317 317 317 317 316 316 316 316 316 316 316 316 316 317 317 316 316 315 316 316 316 316 316 316 315 314 314 313 313 313 313 313 313 313 312 311 310 309 309 309 308 308 307 305 304 303 303 304 303 303 304 304 304 304 304 305 305 306 306 305 305 305 305 305 305 305 305 306
319 320 318 318 319 319 318 318 318 317 316 318 317 314 314 315 316 314 314 316 316 316 317 317 316 317 317 317 317 317 317 316 316 316 316 316 316 316 316 316 316 316 316 316 316 316 316 315 316 316 316 316 316 315 315 314 314 313 313 313 313 313 312 312 312 310 309 309 309 308 308 306 304 303 303 304 303 303 303 303 304 304 305 305 305 306 306 305 305 305 305 305 305 305 305 305 305
320 319 318 319 320 319 317 317 317 316 316 317 317 315 314 314 314 314 315 316 316 316 317 318 317 317 317 316 316 316 316 316 316 316 316 316 316 316 315 316 316 316 316 316 316 316 316 316 315 315 315 315 315 315 315 314 314 314 314 313 313 313 312 312 311 310 309 309 309 308 308 306 304 303 304 303 303 303 303 303 304 304 304 305 305 306 305 305 304 304 304 304 305 305 305 305 305
319 317 318 320 319 318 317 317 316 316 315 315 315 315 314 315 314 313 315 315 316 317 318 318 318 317 317 317 316 316 316 316 316 316 316 316 315 315 315 315 315 315 315 316 316 316 316 316 316 315 315 315 315 315 315 315 314 314 314 313 313 313 312 312 311 311 310 309 309 308 308 306 304 303 304 304 303 303 303 304 305 305 305 305 306 305 305 304 304 304 304 304 304 305 305 305 305
318 318 319 320 317 317 318 317 316 316 315 314 314 314 315 315 314 314 314 315 317 318 318 317 317 317 316 316 315 315 315 315 315 315 315 315 315 315 315 315 315 315 315 315 315 315 316 316 316 316 315 315 315 315 315 315 315 314 314 314 313 313 313 312 312 311 310 309 309 308 308 306 304 304 304 304 304 304 304 304 305 305 305 305 305 305 304 304 304 304 304 304 305 305 305 305 305
317 318 319 319 318 317 318 317 316 316 315 315 315 315 315 314 315 315 315 315 316 316 315 316 315 316 316 315 315 315 315 315 315 315 315 315 315 315 315 315 315 315 315 315 315 315 315 316 316 316 316 315 315 315 315 315 315 315 314 314 314 313 313 313 312 312 311 310 309 308 308 306 305 304 304 304 304 304 304 304 305 305 305 305 305 305 304 304 304 304 303 304 305 305 305 305 305
316 317 318 317 318 317 317 316 316 316 315 316 315 315 315 315 316 315 315 315 315 315 315 315 315 315 315 315 314 314 315 315 315 314 314 314 314 314 314 314 314 315 314 315 315 315 315 315 315 316 316 316 316 315 315 315 315 314 314 314 314 314 313 313 312 312 311 310 309 309 308 307 305 304 304 304 304 304 304 304 305 305 305 305 305 305 304 304 303 303 303 304 305 305 305 305 305
315 316 317 317 316 316 316 315 315 315 315 315 315 315 316 317 316 315 314 315 315 315 314 314 314 314 314 314 314 314 314 314 314 314 314 314 314 314 314 314 314 315 315 315 315 315 315 315 315 316 316 316 316 316 315 315 315 315 314 314 314 314 314 313 313 312 312 311 310 309 308 308 306 305 304 304 304 304 304 304 304 304 305 305 305 304 304 303 303 303 303 304 304 305 305 305 305
316 317 317 316 315 315 315 314 314 314 314 314 314 315 316 316 315 314 315 315 315 314 314 314 314 314 314 314 314 314 314 314 314 314 314 314 314 314 315 314 314 315 315 315 315 315 315 314 315 315 315 316 316 316 316 315 315 315 314 314 314 314 314 313 313 312 312 311 310 309 309 308 307 306 304 304 304 304 304 304 304 304 304 305 305 304 304 303 303 303 303 303 304 304 305 305 305
314 314 315 314 314 314 313 313 313 313 313 313 313 314 316 315 313 314 315 315 314 314 314 314 314 314 314 314 314 314 314 314 314 314 314 314 314 314 314 314 314 315 315 314 315 315 315 315 315 315 315 315 316 316 316 316 315 315 315 314 314 314 314 313 313 313 312 311 310 310 309 308 308 306 304 304 303 303 303 303 303 304 304 304 304 304 304 303 303 303 302 303 304 304 305 305 305
312 312 312 314 314 314 312 312 312 312 312 312 312 313 314 314 311 313 315 314 314 313 313 313 313 313 314 314 314 314 314 315 315 314 314 314 314 314 314 314 314 314 314 314 314 314 314 315 314 315 314 315 315 316 316 316 316 315 315 315 314 314 314 314 313 313 312 312 311 310 309 308 308 307 305 304 303 303 303 303 303 303 304 304 304 304 304 303 303 302 302 303 304 304 304 304 305
311 311 312 313 313 313 314 314 313 312 311 311 311 312 313 313 313 314 314 314 313 312 313 313 313 313 314 314 314 314 315 314 314 314 314 314 314 314 314 314 314 313 314 314 314 314 314 314 314 315 314 315 315 315 315 315 316 316 316 315 315 314 314 314 313 313 312 312 311 310 309 309 308 307 306 304 303 303 302 302 303 303 303 304 304 304 304 303 303 302 302 302 303 304 304 304 304
311 311 311 312 313 313 314 314 311 310 311 310 311 311 313 314 315 315 314 314 312 312 312 313 313 313 314 314 314 314 314 314 314 314 315 314 313 313 313 313 313 313 313 313 314 314 314 314 314 314 314 315 314 315 315 315 315 316 316 315 315 315 314 314 314 313 313 312 311 311 310 309 308 307 307 305 303 302 302 302 302 302 303 303 303 303 303 303 302 302 302 302 303 303 303 303 304
312 311 311 312 313 314 314 312 309 310 311 310 311 311 313 314 315 315 314 313 312 311 312 313 313 313 313 313 313 313 314 315 315 315 314 313 313 313 313 313 313 313 313 313 314 314 314 314 314 314 314 314 314 314 315 315 315 315 315 315 315 315 315 314 314 313 313 312 312 311 310 309 308 308 307 306 303 302 302 302 302 302 302 302 303 303 303 303 302 302 302 302 302 302 303 303 303
312 311 313 314 313 314 314 313 311 312 310 309 310 312 313 314 315 315 314 312 311 311 312 312 313 313 313 313 313 313 314 315 315 314 313 313 313 313 313 313 313 313 314 313 314 314 314 314 314 314 314 314 314 314 314 314 315 315 315 315 315 315 315 315 314 314 313 313 312 311 310 309 309 308 308 307 305 302 302 302 302 302 302 302 302 303 303 303 302 302 301 301 302 302 302 302 302
313 312 314 315 314 314 314 314 313 312 310 309 310 312 313 314 314 314 314 313 311 311 312 312 313 313 313 313 312 313 313 314 313 312 312 313 313 313 313 313 314 314 314 314 313 314 314 314 314 314 314 314 314 314 314 314 314 314 315 315 315 315 315 315 315 314 314 313 313 312 311 310 309 308 308 307 306 304 302 301 301 301 301 301 302 302 302 302 302 301 301 301 301 301 302 301 302
314 314 314 314 313 313 313 314 313 311 310 310 310 310 312 312 314 314 313 313 312 312 312 313 313 313 313 313 313 313 312 312 312 311 312 313 313 314 314 314 313 313 313 313 313 313 313 313 314 314 314 314 314 314 314 314 314 314 314 314 315 315 315 315 315 315 314 314 313 312 312 310 309 309 308 307 307 305 303 301 301 301 301 301 301 301 301 302 302 301 301 301 301 301 301 301 301
316 315 314 314 313 312 312 313 313 311 310 311 310 310 311 311 312 313 313 312 312 312 312 313 313 313 313 313 313 313 312 312 311 311 312 313 314 313 313 313 313 313 313 313 313 313 313 313 314 314 313 313 313 313 313 313 313 313 314 314 314 314 314 314 315 314 314 314 314 313 313 312 310 309 308 308 307 307 305 302 301 301 300 300 300 301 301 301 301 301 301 300 301 300 301 301 301
314 313 313 313 313 312 312 313 313 312 310 310 311 311 312 312 312 312 313 313 313 313 313 313 313 313 313 313 313 314 313 312 311 312 313 314 314 313 313 313 313 313 313 313 313 313 313 313 313 313 313 313 313 313 313 313 312 312 313 313 313 313 314 314 314 314 314 314 314 314 313 312 311 310 309 308 307 307 306 304 302 301 300 300 300 300 300 301 301 301 300 300 300 300 300 300 300
311 312 313 313 313 313 313 313 313 311 309 310 311 311 312 312 312 313 313 313 313 313 314 313 313 313 313 314 314 314 313 311 312 313 313 313 313 313 313 313 313 313 313 313 313 312 312 312 312 312 311 311 311 312 312 312 312 312 313 313 313 313 313 313 314 314 314 314 314 314 314 313 312 310 308 308 307 307 306 305 302 300 300 300 300 300 300 300 301 300 300 300 300 300 300 300 300
311 312 313 313 313 313 313 313 313 310 309 311 311 311 312 312 312 312 313 313 313 314 314 314 314 314 314 314 314 313 311 311 312 313 313 313 313 313 313 313 313 312 312 312 312 312 312 311 311 311 311 311 311 311 311 311 311 311 312 312 312 312 312 313 313 313 313 314 314 314 314 313 312 311 309 307 307 306 306 305 303 301 300 300 299 299 299 299 300 300 300 300 300 299 300 300 300
312 312 313 313 313 313 313 312 311 309 308 311 311 310 311 311 311 312 313 313 313 313 313 313 314 314 314 314 313 312 311 312 313 313 313 313 313 313 313 313 312 312 312 312 312 312 312 312 311 311 311 311 310 310 310 310 310 310 310 310 311 311 311 312 312 312 312 313 313 313 313 313 313 312 310 308 306 306 305 305 305 303 301 300 299 299 299 299 299 299 299 299 299 299 299 300 300
312 312 313 313 313 313 313 312 310 308 308 310 310 310 312 312 312 313 313 313 313 313 313 313 314 314 314 312 311 311 312 312 312 312 313 313 313 313 313 313 312 312 312 312 312 312 312 312 311 311 311 311 310 310 310 309 309 309 309 309 309 309 310 310 310 311 311 311 312 312 313 313 313 312 311 309 307 306 305 305 305 305 303 301 300 299 299 299 299 299 299 299 299 299 299 299 300
313 313 313 313 313 313 313 312 311 310 310 310 310 312 314 315 315 314 314 313 312 313 313 314 314 313 312 311 311 312 312 312 312 312 313 313 313 313 312 312 312 312 312 312 312 312 312 312 311 311 311 311 310 310 310 309 309 309 309 309 308 308 309 309 309 309 310 310 311 311 312 312 312 312 312 310 308 306 305 305 305 305 305 302 300 299 299 299 299 299 299 299 299 299 299 299 299
314 314 313 312 312 312 312 313 311 311 313 310 310 314 315 315 315 315 315 314 314 314 314 315 315 313 312 311 311 311 311 311 312 312 312 312 312 312 311 311 311 312 312 312 312 312 311 311 311 311 311 310 310 310 309 309 309 309 309 309 309 309 309 309 309 309 310 310 310 310 311 311 311 312 312 311 310 308 306 305 304 305 305 304 302 300 299 299 299 299 299 299 299 299 299 299 299
313 314 313 312 312 312 312 312 311 312 313 311 309 313 315 315 315 315 315 315 315 316 316 316 315 313 312 311 310 311 311 311 312 311 311 311 311 311 311 311 311 312 313 313 313 312 311 311 311 311 311 310 310 310 309 309 309 308 308 309 308 308 309 309 309 309 309 309 309 309 309 310 310 311 311 311 311 309 307 306 304 304 304 304 303 300 299 299 299 299 299 299 299 299 299 299 299
313 314 313 312 312 312 312 311 311 312 312 311 310 312 314 315 315 314 314 314 315 316 317 317 315 313 311 310 310 310 311 311 311 310 309 309 310 310 310 310 311 312 313 313 313 312 312 312 312 312 311 310 310 310 309 309 308 308 308 308 307 307 307 307 308 308 308 308 308 308 308 308 309 309 309 309 310 309 308 307 304 303 303 303 303 302 300 299 298 299 298 298 298 299 299 299 299
313 311 309 310 310 311 311 311 311 310 310 312 312 312 314 316 315 312 312 313 316 317 316 316 314 312 311 310 310 310 310 310 309 308 308 308 309 309 309 309 311 312 313 313 313 312 312 312 312 312 312 311 310 309 309 308 308 308 307 307 307 307 307 306 306 306 307 307 307 307 307 307 308 308 308 308 308 308 308 307 305 303 302 302 303 302 301 299 298 298 298 298 298 298 298 299 299
311 309 309 310 309 309 310 310 311 311 311 314 314 312 315 318 317 314 313 314 316 317 315 314 312 311 310 309 309 309 308 307 307 307 307 307 308 308 308 309 311 312 312 312 312 312 312 311 311 312 312 312 311 310 309 308 308 307 307 307 306 306 305 305 305 305 306 305 306 306 306 306 307 307 307 307 307 308 307 307 306 304 302 301 301 302 302 300 299 298 298 298 298 298 298 298 298
307 309 311 311 311 309 309 310 310 312 314 316 314 314 316 317 318 316 314 314 313 314 314 314 312 311 309 308 307 307 306 306 307 307 307 306 306 307 309 310 310 310 311 311 311 311 311 311 311 311 312 311 311 311 310 308 308 307 307 306 306 305 305 304 304 304 304 305 305 305 305 305 306 306 306 306 306 307 307 306 306 305 303 301 301 301 301 301 299 298 297 297 297 297 298 298 298
308 311 310 311 312 311 311 311 311 314 318 316 313 314 315 317 317 315 314 314 312 312 313 313 312 310 308 307 305 305 305 305 306 306 306 305 306 307 308 309 309 309 310 310 310 310 310 310 310 311 311 311 311 311 310 309 308 308 307 306 306 305 304 304 304 304 304 304 304 304 304 304 304 305 305 305 306 306 306 306 305 305 304 303 301 300 300 300 299 298 297 297 297 297 297 297 297
309 310 309 311 314 315 316 315 314 316 318 312 310 312 314 315 316 314 314 315 313 312 312 311 310 308 307 305 303 303 304 304 304 304 304 304 305 306 306 307 308 308 308 308 309 309 309 309 309 310 310 310 310 310 310 309 309 308 308 308 306 305 304 304 304 304 303 303 303 303 303 303 303 304 304 305 305 305 305 305 305 305 304 304 302 301 300 299 299 299 298 297 297 297 297 297 297
308 310 310 313 316 318 320 319 316 318 317 310 307 311 313 315 316 315 315 315 313 311 310 308 307 306 304 303 302 302 302 302 302 303 303 303 303 304 305 305 305 306 306 307 307 307 308 308 309 309 310 310 310 310 310 309 309 309 309 309 308 307 305 304 303 303 303 303 303 303 303 302 302 303 303 304 304 304 304 304 304 304 304 304 303 302 300 299 299 299 298 297 297 296 296 296 296
308 311 312 314 317 319 320 321 319 321 320 313 309 313 316 316 316 313 313 312 310 309 308 306 305 304 302 301 300 300 301 301 301 301 301 302 302 303 303 303 303 304 304 304 305 305 305 305 306 307 308 309 309 310 310 310 309 309 309 309 309 308 307 305 304 303 302 302 302 302 302 302 302 302 302 302 302 303 303 303 303 303 303 303 303 302 301 300 299 298 298 298 297 296 296 296 296
310 311 312 312 315 318 319 320 321 320 320 317 313 315 316 315 314 312 313 312 309 307 305 305 304 302 301 300 299 298 298 299 300 300 300 300 301 301 301 301 301 301 302 302 301 301 301 303 304 305 306 306 307 308 308 309 309 309 309 308 308 308 308 307 305 303 302 302 301 301 302 302 302 302 302 302 302 302 302 302 302 302 302 302 302 302 301 300 299 298 298 298 297 297 296 296 296
311 310 312 313 314 316 315 317 318 316 316 318 317 317 316 316 316 313 313 312 308 306 304 303 302 301 300 298 297 297 296 297 298 299 299 299 299 299 299 299 299 300 300 299 299 299 300 302 304 304 304 304 305 306 306 307 308 308 308 308 307 307 307 307 305 303 301 301 301 301 301 301 301 301 301 301 301 301 301 301 301 301 301 301 302 302 301 301 300 299 298 297 297 297 297 296 296
311 311 314 314 313 313 312 314 316 316 317 318 318 318 318 318 317 313 313 313 308 304 303 302 301 300 299 297 297 296 296 297 297 298 298 298 298 298 298 298 298 298 298 298 298 299 300 302 302 302 302 302 302 303 304 304 305 306 307 307 307 306 306 306 305 304 302 301 301 301 301 301 301 301 301 300 300 300 300 300 300 300 300 301 301 301 301 301 300 300 299 298 298 297 297 296 296
310 311 312 313 313 314 313 314 315 317 318 319 318 318 317 317 317 315 314 312 307 304 302 300 299 299 298 297 296 295 296 297 297 297 297 297 297 297 297 297 298 298 298 299 299 300 301 301 301 300 300 300 300 300 301 301 302 303 304 305 305 305 305 305 304 304 303 302 302 302 301 300 300 300 300 300 300 299 299 300 300 300 300 300 300 300 300 300 300 300 300 299 299 298 297 297 296
308 308 310 310 312 313 314 315 316 317 318 319 319 319 318 317 317 314 311 307 305 304 301 299 299 298 298 297 297 295 295 295 295 295 295 295 296 296 296 297 297 297 298 298 299 300 300 300 299 299 299 299 299 299 299 299 300 300 301 302 303 304 304 304 304 303 303 303 303 303 302 301 300 300 299 300 299 299 299 299 299 299 299 299 299 299 300 300 300 300 300 300 300 299 299 298 297
309 309 310 309 310 312 314 314 315 316 317 319 319 319 320 316 311 309 306 303 303 302 300 299 299 298 297 296 296 295 294 293 293 294 294 295 295 296 296 297 297 297 297 298 298 298 298 298 298 298 298 298 298 298 298 298 298 298 298 299 300 301 302 302 303 303 303 303 303 303 302 302 301 300 300 299 299 299 299 299 299 298 298 298 298 298 299 299 299 299 299 300 300 300 299 299 299
311 310 310 311 311 312 314 315 316 315 315 317 317 318 320 313 306 304 303 301 301 301 300 299 298 297 297 296 296 295 294 294 294 294 295 295 296 296 297 297 297 297 298 298 297 297 297 297 297 297 297 297 297 297 297 296 296 296 297 297 297 298 299 300 301 302 302 302 302 302 302 302 301 301 301 300 299 298 298 298 298 298 298 298 298 298 298 298 298 299 299 299 299 300 299 299 299
Wind_Speed
7 6 5 5 3 3 3 5 3 1 2 4 2 3 0 0 4 4 3 2 2 0 3 6 5 7 6 2 4 7 7 7 5 4 4 3 4 3 1 3 7 9 14 21 22 22 23 22 21 21 22 22 22 21 20 19 18 17 16 14 14 13 12 13 12 12 10 9 9 9 9 9 9 9 9 8 9 9 8 7 7 7 6 7 7 7 8 8 7 8 8 6 6 6 5 5 5
7 7 5 5 2 2 2 4 4 1 3 4 1 1 2 1 3 3 4 6 5 4 5 6 7 10 11 8 7 8 8 10 10 10 11 11 10 6 4 4 6 9 12 19 22 22 23 23 21 21 21 22 22 21 20 19 19 18 16 15 15 14 13 13 12 12 11 10 10 10 10 11 11 11 11 10 10 10 8 8 8 8 7 8 9 9 8 8 7 7 7 6 6 7 8 8 9
7 6 5 4 2 2 1 2 3 3 4 4 2 1 1 2 3 2 4 6 7 9 8 4 7 10 11 10 7 7 6 8 12 13 14 14 12 9 6 6 7 9 12 17 21 22 23 23 22 21 21 22 22 22 21 20 20 19 17 16 15 14 13 13 12 12 11 12 12 12 12 12 13 14 13 12 11 10 9 9 10 10 10 10 11 11 10 9 9 8 8 8 8 9 10 11 12
6 5 4 3 2 2 1 2 2 4 4 3 3 2 2 3 3 3 4 6 9 11 6 3 5 7 9 9 5 6 8 8 10 9 10 10 9 9 7 8 9 10 12 16 20 22 22 23 23 22 21 21 22 22 22 21 20 19 17 16 14 14 14 14 13 13 12 13 14 13 14 14 14 16 15 13 12 11 11 11 12 12 12 13 13 13 11 11 11 11 11 11 12 12 13 13 13
4 4 4 3 2 1 0 2 1 3 4 2 4 1 1 2 4 6 7 7 10 10 5 4 3 3 6 9 5 4 8 7 7 6 7 9 8 8 8 9 10 11 12 15 19 21 21 22 23 23 22 22 22 22 22 21 20 19 18 16 14 14 15 15 14 14 14 14 14 15 16 16 16 17 16 14 14 13 13 13 14 14 14 14 14 13 13 12 12 12 12 13 13 13 13 13 12
3 2 2 3 2 0 1 2 2 5 3 2 6 6 4 2 5 9 10 10 9 7 5 6 4 4 5 8 9 9 11 10 9 10 10 10 9 8 9 9 11 13 13 15 18 20 21 21 22 23 23 23 22 22 22 21 20 19 17 16 15 15 16 16 15 15 15 15 16 17 17 18 18 18 16 16 15 16 15 15 14 14 14 14 13 13 12 12 11 11 12 12 12 12 12 12 11
3 2 2 3 2 1 4 4 4 5 1 1 6 8 9 6 5 8 11 8 4 3 5 7 5 5 5 6 9 10 12 12 13 14 13 12 11 10 9 9 11 14 14 15 17 19 20 20 22 23 23 24 23 22 21 21 20 19 17 16 16 16 17 17 17 16 16 16 17 19 19 20 19 19 18 17 16 15 14 14 13 12 13 13 12 12 11 11 10 11 11 11 11 11 10 10 9
5 3 2 3 1 1 4 4 4 4 1 2 6 9 12 11 8 9 10 5 2 3 4 7 5 4 5 4 6 10 13 13 13 14 13 13 12 11 9 10 12 14 16 16 16 18 20 20 22 22 23 24 23 22 21 21 20 19 18 18 17 17 18 19 18 18 18 19 20 19 19 20 20 19 19 16 14 13 11 12 12 11 11 11 11 11 11 10 9 10 10 10 9 8 7 6 6
6 4 2 2 2 2 3 4 4 4 3 4 7 10 13 13 9 8 9 5 5 5 5 7 7 4 3 4 9 12 13 11 11 12 11 11 10 10 10 10 12 14 16 16 17 18 20 21 22 23 23 24 23 22 20 20 20 19 18 19 19 19 19 20 21 21 21 21 21 19 19 20 19 17 16 12 11 11 11 11 11 10 10 10 10 10 9 8 8 8 8 7 6 6 5 5 5
5 3 2 1 2 3 4 4 3 2 4 4 8 13 13 11 7 7 8 6 5 4 5 6 9 11 6 7 11 10 10 10 10 11 10 10 9 10 10 10 12 14 16 17 17 18 20 21 23 23 24 24 23 22 21 21 21 20 19 19 20 20 20 21 22 23 22 22 21 21 20 19 18 16 14 11 10 11 11 10 10 9 9 9 8 8 7 7 7 6 6 5 5 5 5 5 5
3 2 2 2 2 4 3 3 4 3 3 4 8 11 10 7 5 5 6 6 5 4 6 5 6 11 9 8 11 10 11 11 9 9 10 10 9 9 10 11 13 14 17 18 18 19 20 21 23 24 25 25 24 23 22 21 21 20 19 19 20 20 21 21 22 23 23 22 22 22 21 19 17 15 13 11 10 11 10 10 9 9 8 7 7 6 6 6 6 6 5 5 5 5 5 5 5
3 2 3 3 2 3 3 4 5 6 6 5 4 3 3 3 4 3 4 5 4 6 8 8 5 4 6 5 8 13 14 9 7 8 10 10 9 9 10 12 13 14 17 18 19 20 20 21 23 24 25 25 24 24 23 22 21 20 19 19 20 20 21 21 22 23 22 22 22 22 21 19 17 14 12 11 11 11 11 10 10 9 8 6 6 6 6 6 6 6 6 6 5 5 5 5 5
3 2 3 2 1 2 1 3 4 6 6 3 1 4 3 3 4 3 2 5 4 5 6 9 8 4 5 7 11 16 12 7 8 10 11 11 10 10 11 12 14 15 16 18 20 21 22 22 23 24 25 25 25 24 23 23 22 20 19 19 20 20 21 21 20 21 21 20 20 20 20 19 15 13 12 12 12 12 11 11 10 9 7 7 6 7 7 7 7 6 6 6 5 5 5 5 5
4 3 3 1 0 2 2 4 3 3 4 1 1 4 4 3 4 3 2 6 5 5 5 6 9 6 7 9 9 8 6 10 14 15 15 12 11 10 11 13 14 16 16 18 20 22 23 23 24 25 25 26 26 25 25 24 23 21 21 21 21 21 21 21 20 20 20 19 19 19 19 17 14 13 13 13 13 12 12 11 10 9 8 7 7 7 7 7 7 6 6 6 5 5 5 4 4
6 5 2 1 1 2 3 3 2 3 3 1 2 4 4 5 4 3 4 7 6 7 9 6 8 6 4 6 6 6 10 18 20 20 18 15 14 12 13 14 16 18 18 19 20 22 24 25 25 25 26 27 27 27 26 26 24 23 22 22 22 21 22 22 21 20 19 19 19 19 18 16 14 14 13 13 13 12 12 11 10 9 9 8 8 8 8 7 7 6 6 5 5 4 4 4 3
7 6 1 2 2 2 3 2 1 3 3 1 4 5 4 6 5 4 6 8 10 14 14 10 12 11 10 13 16 18 21 23 22 23 21 20 18 15 15 15 17 19 20 20 21 23 24 26 26 26 27 27 28 28 28 27 25 24 23 23 23 22 22 23 22 21 20 19 19 18 17 16 15 15 14 14 14 13 12 12 11 10 10 9 9 9 8 8 7 7 6 5 5 4 4 4 3
7 5 2 3 3 3 3 4 3 2 3 2 5 6 5 5 5 7 10 11 14 17 18 17 18 20 23 24 25 25 25 25 24 24 23 23 21 20 19 18 19 20 21 22 22 24 25 26 27 27 28 28 29 29 29 28 27 26 25 25 24 23 23 23 22 21 20 19 19 18 17 17 16 16 15 15 15 14 13 13 12 11 11 10 10 10 10 9 8 8 7 6 5 5 5 4 4
6 3 3 4 4 4 4 6 6 1 5 5 3 5 6 7 6 7 9 11 14 18 23 25 25 27 29 29 27 26 25 24 24 25 24 25 24 24 23 22 22 21 22 23 24 25 26 27 27 28 28 29 30 30 30 30 29 28 27 27 26 25 25 24 23 22 21 20 19 19 18 18 17 17 17 16 16 15 14 14 13 12 12 12 12 11 11 10 9 8 8 7 7 6 6 6 5
5 2 3 5 4 3 4 7 7 5 8 8 6 5 7 9 7 6 8 11 11 14 21 20 23 28 29 27 24 22 21 22 23 25 26 25 25 25 25 25 25 24 24 24 24 25 27 27 27 28 29 29 30 31 31 31 30 30 29 29 28 27 27 25 24 23 21 21 20 20 19 19 18 18 18 17 16 16 16 15 14 14 13 14 13 13 13 12 10 9 8 8 7 7 7 6 6
5 4 5 7 6 4 6 10 10 11 13 11 10 8 9 12 10 6 7 11 11 14 20 17 17 24 24 21 22 20 20 23 24 26 28 27 26 26 26 26 26 26 25 25 25 26 27 28 28 29 29 30 31 31 32 32 32 32 31 31 30 29 28 27 26 24 23 22 21 21 21 20 20 20 19 18 18 18 17 16 16 15 15 15 15 14 14 12 11 10 9 8 8 7 7 6 6
4 6 7 6 3 5 9 14 15 15 14 12 10 10 11 12 10 9 8 8 10 16 21 20 20 24 23 19 23 24 23 25 27 28 29 29 27 26 27 26 26 26 26 27 27 27 27 29 29 30 31 31 32 32 32 33 33 33 33 32 31 31 30 29 28 26 25 24 23 23 22 22 22 22 21 20 21 20 19 18 17 16 16 16 16 15 15 14 12 11 9 8 8 8 7 7 6
4 8 13 9 4 6 8 10 13 14 13 12 8 9 11 10 11 13 11 8 13 21 25 25 25 29 28 26 28 30 29 29 28 28 28 28 27 26 25 25 25 25 26 27 27 26 27 29 30 31 32 33 33 33 33 33 34 34 34 34 33 32 32 31 29 28 27 26 25 25 24 23 24 24 23 23 23 22 20 19 18 17 17 17 17 17 16 15 13 11 10 9 9 8 7 7 6
7 9 13 13 10 10 11 8 10 12 10 10 9 12 13 11 13 15 16 19 26 33 34 35 35 33 34 33 33 33 31 29 27 26 26 25 25 24 23 24 24 25 25 25 25 26 28 29 30 32 33 34 34 34 34 35 35 35 35 35 34 34 34 33 31 30 29 27 27 26 26 26 26 26 25 25 24 23 22 20 19 18 19 19 18 18 17 16 14 12 11 10 9 8 8 7 6
9 8 8 11 12 15 16 11 12 14 13 14 15 17 19 15 13 11 16 25 36 40 40 41 40 36 35 33 31 30 28 27 26 25 24 24 23 22 22 23 23 24 25 25 25 27 29 29 29 32 34 35 35 35 36 35 36 36 36 36 36 36 35 34 33 32 31 29 28 28 28 28 28 27 27 26 26 25 23 21 20 20 20 20 20 19 18 17 15 13 12 11 10 9 8 7 6
10 13 9 7 10 15 17 15 15 17 18 20 18 19 26 24 15 14 23 34 42 41 40 38 35 32 31 29 27 26 27 27 26 25 25 23 21 21 21 22 23 25 24 24 25 26 28 28 29 32 34 34 35 36 37 37 37 37 37 38 36 37 36 36 36 34 32 31 31 30 30 29 29 29 28 28 27 26 25 23 22 22 22 21 21 21 19 18 16 14 13 12 11 10 9 7 6
10 13 10 8 11 13 15 15 16 17 20 18 14 19 28 23 15 20 30 35 34 29 29 28 27 28 28 28 27 27 27 27 26 25 25 23 22 23 22 22 24 24 23 24 25 25 26 28 29 31 33 34 35 36 37 38 38 38 39 38 38 38 38 37 37 36 35 34 33 32 31 31 31 30 30 29 29 28 26 25 24 24 23 23 22 22 21 19 18 16 15 13 12 11 10 8 7
3 7 10 13 16 16 15 16 16 15 18 18 14 17 25 16 7 16 19 16 18 18 23 27 25 28 29 28 28 27 28 27 25 25 26 26 25 25 23 24 26 25 25 25 24 24 25 28 29 31 33 35 35 37 38 38 39 39 39 39 39 40 39 38 38 37 37 36 35 33 33 32 32 32 31 31 30 29 28 27 26 25 25 24 24 23 22 21 19 18 16 15 14 13 11 9 8
5 7 10 15 17 18 17 17 17 14 12 15 16 16 22 13 5 20 25 17 18 20 25 29 27 29 30 28 28 26 28 28 28 29 31 31 30 30 28 28 28 28 28 26 24 25 26 27 29 30 32 35 36 37 37 38 39 39 39 39 40 40 39 40 39 39 38 37 36 35 34 34 34 33 33 32 32 31 30 29 28 26 26 26 25 25 24 23 21 20 18 17 16 14 12 10 8
7 7 9 14 13 17 18 15 14 12 6 6 10 10 15 11 13 29 32 24 22 20 25 30 28 29 28 26 27 29 33 35 35 36 36 36 34 33 34 33 31 31 30 28 26 26 27 26 27 29 31 34 36 37 38 39 39 39 40 41 40 41 40 40 40 40 39 38 38 37 36 36 35 35 34 34 33 33 32 30 29 28 27 27 27 26 25 25 23 22 20 19 17 15 13 11 9
7 4 3 10 10 12 9 6 5 6 5 7 9 6 10 10 18 26 22 19 18 16 22 27 27 27 27 28 31 36 40 40 40 39 38 38 38 36 36 36 33 32 31 29 28 27 27 26 25 27 30 32 34 37 39 39 39 40 41 41 42 42 41 41 41 41 41 40 39 38 38 38 37 37 36 35 35 34 34 32 31 30 29 28 28 27 27 27 25 24 22 20 18 17 15 12 11
6 2 2 6 7 7 2 5 4 3 5 12 10 8 10 10 17 18 13 15 15 14 20 22 22 23 27 33 38 42 43 42 41 39 38 39 38 37 35 33 30 29 28 26 26 25 26 27 26 27 28 30 33 35 37 38 39 40 41 42 43 42 41 42 42 42 42 41 41 40 40 40 39 39 37 36 36 36 36 35 34 32 31 30 29 29 29 29 27 25 23 21 19 18 16 14 12
4 4 5 5 5 7 7 3 6 7 4 12 11 7 8 10 15 14 13 14 12 14 20 22 24 25 30 33 37 43 45 43 42 39 38 36 34 33 30 28 25 24 24 22 22 22 25 26 26 27 27 28 31 33 35 37 39 40 41 42 43 42 43 44 44 43 43 43 43 43 42 42 41 40 39 38 38 38 38 37 36 34 33 32 32 32 31 31 29 27 25 23 21 19 17 16 14
4 5 8 6 7 8 7 7 6 6 3 9 12 8 8 9 12 16 17 18 17 19 26 29 29 29 33 33 34 38 41 42 38 33 35 33 29 27 24 22 19 18 19 19 19 19 22 24 25 26 27 27 29 31 34 36 38 40 41 42 43 43 44 44 45 44 44 44 45 45 44 43 43 42 41 40 40 39 39 38 37 36 35 34 34 33 33 33 31 28 26 25 23 21 19 17 16
5 5 7 7 9 9 6 7 3 3 5 8 11 11 13 14 16 22 24 24 24 24 30 33 31 31 34 32 30 30 30 32 29 26 31 28 23 20 17 15 14 14 15 15 16 16 18 20 23 24 26 26 27 30 32 34 36 39 41 43 44 44 44 45 46 46 46 46 46 46 46 45 44 44 43 42 41 41 40 40 40 38 37 37 36 35 35 34 32 30 28 27 25 23 22 20 18
7 4 6 6 7 9 9 9 4 3 7 8 9 13 16 16 17 23 28 27 24 26 29 29 31 34 33 30 29 24 20 20 21 23 25 21 17 14 11 10 9 10 11 12 13 14 15 17 20 22 24 25 26 28 31 33 35 38 41 42 44 45 46 46 47 47 47 47 47 47 46 46 46 46 45 44 43 42 42 41 41 41 40 40 39 38 37 35 33 32 31 30 27 25 24 21 19
6 5 7 9 9 9 11 12 8 7 10 11 13 17 17 16 15 17 24 26 24 30 30 27 30 29 28 32 28 16 13 15 17 21 20 16 12 8 7 6 5 5 7 9 11 12 13 15 17 20 21 22 24 27 30 32 35 37 39 41 43 45 46 47 47 48 48 48 48 48 48 48 48 48 47 46 45 44 43 43 43 43 43 42 41 40 39 37 35 35 34 32 29 27 25 23 22
5 6 9 10 11 12 12 14 10 2 6 11 13 18 18 17 16 15 24 28 26 29 27 26 28 25 28 33 21 8 10 14 16 18 15 9 5 5 5 5 4 3 3 5 7 8 10 12 15 17 18 20 23 26 28 31 34 36 38 39 41 43 44 46 47 48 49 49 49 49 50 50 50 50 49 48 47 46 45 45 45 45 44 44 42 41 40 38 37 36 35 33 31 30 28 26 24
10 9 11 11 10 13 13 14 13 2 3 9 10 17 18 17 19 18 23 25 23 24 22 24 27 28 29 19 6 6 11 14 16 12 6 5 6 5 6 7 8 8 8 7 6 6 7 9 12 14 16 18 20 23 25 27 30 32 34 36 38 40 42 45 47 48 49 50 51 51 52 52 52 52 51 50 49 48 48 47 47 46 45 45 44 42 41 39 38 38 37 35 34 32 30 29 26
11 8 8 9 8 12 12 10 9 1 2 8 10 15 15 17 22 20 21 19 20 24 22 25 31 30 20 5 7 13 17 16 11 7 10 11 11 11 12 13 15 15 15 14 13 11 9 7 8 10 13 15 17 20 22 24 26 28 31 33 36 38 40 42 44 47 49 50 52 53 53 53 53 53 53 52 51 51 50 49 48 47 46 46 45 44 43 42 41 40 39 38 37 35 33 30 28
8 8 8 9 7 8 8 5 2 1 5 9 13 14 12 15 17 13 13 13 18 23 22 30 34 22 12 9 12 15 13 9 7 14 15 17 18 18 18 19 19 20 20 19 18 17 15 12 9 7 8 11 13 16 17 19 22 25 27 30 33 35 38 40 42 44 47 50 52 53 54 54 55 55 54 54 53 53 52 51 49 48 47 47 47 47 47 46 44 43 42 41 40 37 35 33 31
9 8 7 11 11 11 12 7 5 7 8 5 10 12 7 5 3 1 2 5 11 16 21 27 18 6 9 8 8 8 6 6 13 18 20 22 21 21 21 20 21 21 22 21 20 19 18 15 13 10 8 7 9 11 12 15 18 20 23 26 30 33 36 38 41 43 45 47 49 51 52 54 55 55 55 55 55 54 54 53 51 50 49 49 49 50 49 48 47 46 45 44 42 40 39 36 34
8 7 10 16 15 14 15 11 8 8 6 2 7 10 3 2 1 4 4 4 8 13 17 14 4 11 9 8 8 7 8 13 18 20 22 22 21 22 21 20 21 21 22 20 19 18 17 16 15 13 11 9 7 7 9 13 15 18 21 23 26 29 32 35 37 39 40 41 43 45 47 49 52 53 55 56 56 56 56 55 54 53 52 51 51 51 51 50 49 48 47 45 44 43 41 39 38
8 3 7 13 13 12 12 9 6 5 4 2 3 6 6 4 4 6 7 8 11 14 13 4 7 10 9 9 7 9 14 18 21 21 20 20 21 21 20 19 20 21 21 19 18 17 16 16 15 14 13 12 10 8 8 10 13 16 19 22 24 27 29 31 33 34 35 37 39 40 43 45 47 49 52 55 56 57 57 57 56 55 54 53 53 53 53 53 51 50 48 47 45 45 44 43 41
5 1 1 5 7 8 6 5 5 4 6 3 3 5 8 7 3 3 5 7 13 17 11 3 9 10 11 11 12 16 19 20 20 19 18 19 19 19 19 18 18 20 20 19 18 16 15 15 15 15 15 14 12 10 9 9 10 13 16 19 23 26 28 31 32 33 34 36 37 38 40 42 43 46 49 51 54 55 57 58 58 57 57 56 55 54 54 53 52 51 50 49 48 48 47 45 44
2 3 2 1 1 3 2 3 5 3 5 4 4 5 6 8 2 2 2 7 11 11 6 8 11 9 10 14 16 20 22 21 21 19 18 17 17 17 16 15 17 20 21 19 17 15 14 14 14 15 15 15 14 13 11 10 10 11 13 16 19 22 25 28 31 33 35 36 37 37 38 39 40 42 43 46 49 52 54 57 58 59 58 58 57 56 55 54 53 53 52 52 51 50 49 47 47
1 4 3 3 2 1 1 3 3 3 6 5 6 8 7 8 1 3 1 4 6 6 6 8 13 13 15 18 17 19 21 21 23 22 19 15 15 15 14 15 19 21 20 17 15 14 14 14 15 16 16 17 17 16 14 13 11 11 12 14 16 18 22 25 28 32 34 35 37 37 38 39 39 39 40 42 44 46 49 53 56 59 59 59 59 57 56 55 54 54 54 53 53 52 51 50 50
3 4 1 1 2 1 1 2 1 4 7 5 10 13 9 6 1 2 0 1 3 4 4 5 15 19 21 22 20 20 22 22 22 19 17 16 16 17 17 20 22 20 17 15 14 14 15 16 16 17 18 19 20 19 18 16 14 13 13 13 15 16 19 23 26 29 32 34 35 36 37 38 38 39 39 40 41 42 45 49 52 56 58 60 60 59 58 57 55 55 55 54 54 54 53 52 51
2 1 2 2 2 1 2 2 2 5 7 2 5 7 9 8 2 1 2 4 3 2 4 5 13 16 19 22 23 25 26 24 21 19 19 20 20 21 22 23 22 20 18 17 17 16 16 17 18 18 19 20 21 21 19 17 15 14 14 13 14 15 17 19 22 25 29 32 34 35 37 37 38 39 39 39 39 40 42 45 48 52 56 59 61 61 60 58 57 56 56 55 55 55 55 53 52
2 1 0 3 3 2 3 2 2 6 4 1 1 1 6 9 5 5 10 10 4 0 4 8 12 14 17 21 23 26 26 24 23 23 24 25 25 26 26 25 23 22 21 20 19 18 18 18 18 18 19 20 21 21 21 20 18 17 16 15 14 14 15 17 20 22 25 28 31 34 36 37 37 38 38 38 38 38 40 42 44 47 51 55 58 60 61 60 58 57 56 57 57 57 56 56 55
5 4 3 3 2 3 4 3 4 6 2 2 1 1 5 6 4 9 14 8 4 8 11 15 18 18 19 21 24 27 27 26 27 26 26 28 28 28 27 26 25 23 23 21 19 19 18 18 17 17 18 18 19 20 21 21 21 20 19 18 16 15 15 16 18 20 22 25 27 29 33 35 37 37 37 37 37 37 39 40 42 44 46 50 53 57 59 60 59 58 58 58 58 58 57 57 56
5 2 2 3 3 3 5 4 5 7 4 1 2 2 4 3 1 2 5 2 9 15 17 20 20 19 20 23 25 27 28 28 28 27 27 28 27 27 26 26 25 24 24 23 22 21 20 20 20 20 20 19 18 18 19 20 21 21 21 20 19 18 16 15 16 18 20 23 24 26 28 31 33 35 36 37 37 37 38 39 40 41 43 45 48 52 56 58 59 59 59 59 58 58 57 57 57
2 1 1 3 3 4 5 5 5 5 6 4 4 3 4 3 2 4 3 2 12 19 19 19 19 17 20 24 26 27 28 27 27 27 28 27 27 26 26 25 25 25 25 25 25 24 24 24 25 25 23 22 21 20 19 20 20 21 22 21 21 20 19 17 15 15 17 20 22 23 24 26 28 31 34 35 36 37 38 38 39 40 41 42 44 47 50 54 57 59 60 60 60 58 57 58 58
1 2 3 2 1 2 4 4 1 1 6 6 5 6 7 5 5 3 3 7 12 16 16 17 17 17 20 21 21 23 24 25 26 27 27 26 26 25 25 25 25 25 25 25 25 25 26 27 27 26 24 23 22 21 21 20 20 20 21 22 22 22 21 20 17 15 15 17 19 21 22 23 25 27 30 32 33 35 37 38 39 39 40 41 42 44 46 49 53 57 59 60 60 59 59 59 59
3 3 3 1 1 0 2 3 0 3 7 5 6 12 11 6 4 3 7 9 10 10 10 12 13 14 15 15 15 19 23 23 25 25 24 25 24 24 24 24 24 25 24 24 25 26 27 27 27 26 26 25 24 23 23 22 21 20 19 20 21 21 21 21 20 18 17 17 18 18 19 21 23 25 27 30 32 34 35 36 38 39 39 40 41 42 44 46 49 52 56 59 60 60 60 61 61
2 2 1 1 2 3 3 3 2 5 7 5 6 11 10 6 6 3 3 7 8 7 7 9 11 11 11 11 12 17 21 23 23 23 23 23 22 23 23 23 23 23 23 24 25 26 26 27 26 26 26 26 25 25 24 24 23 22 20 19 19 20 21 21 21 20 20 19 18 17 18 19 20 22 25 27 30 32 34 35 36 38 39 40 40 41 43 45 47 49 52 55 58 60 61 62 62
0 1 1 1 2 4 3 2 1 4 7 5 4 6 6 5 3 0 4 7 6 5 7 8 8 9 9 9 10 13 17 20 20 20 21 21 21 22 23 23 23 23 24 25 25 26 27 27 26 26 26 26 26 26 25 25 24 23 22 21 20 20 21 21 21 21 21 21 20 19 19 18 18 20 22 24 27 29 32 33 35 36 38 39 40 41 42 43 45 48 50 52 54 57 59 61 62
3 3 4 3 2 1 1 1 1 3 5 5 4 5 5 2 3 5 7 6 5 6 7 6 6 8 8 8 8 9 13 16 17 19 20 21 22 22 23 23 23 24 25 25 25 26 26 25 26 26 26 26 27 27 26 26 25 24 24 23 22 21 21 21 22 22 23 23 23 22 21 20 20 20 21 22 24 27 28 31 33 35 37 39 40 40 41 42 44 46 49 50 52 54 57 59 61
3 5 6 6 4 3 3 4 4 4 5 5 6 7 4 1 3 5 8 5 4 6 6 5 6 7 7 9 10 11 13 16 18 19 20 21 22 22 23 23 24 25 25 25 25 25 25 25 25 25 26 26 26 27 27 27 26 25 24 23 22 22 23 23 24 25 25 26 25 24 23 23 23 22 21 22 23 25 26 28 31 33 35 36 38 40 41 42 44 45 47 49 50 52 54 56 59
Wind_Direction
251 247 247 247 271 281 318 342 302 130 286 279 296 304 164 114 319 294 313 347 294 6 250 259 230 198 194 247 296 310 295 263 284 289 314 345 343 350 252 198 194 193 190 197 201 199 196 198 199 196 193 191 191 190 191 194 196 197 200 200 200 200 197 194 193 194 192 193 191 191 195 196 198 199 204 207 206 206 202 197 194 186 184 189 186 194 212 222 228 229 235 250 255 253 261 256 247
253 247 249 244 268 292 304 336 295 273 280 286 304 290 26 97 256 288 351 358 346 325 296 258 224 215 223 256 288 294 273 243 253 264 277 287 297 307 261 232 202 196 190 194 201 201 198 201 202 200 197 196 194 194 194 195 198 200 202 205 205 202 197 193 194 198 196 197 197 196 197 199 202 206 211 209 208 211 211 210 207 198 196 199 201 211 224 233 241 240 236 243 252 255 263 263 266
256 248 247 245 272 318 304 297 280 297 294 301 349 87 48 263 261 349 360 344 332 307 296 255 220 224 233 251 264 271 274 258 262 263 271 280 280 281 253 231 212 198 194 194 201 203 201 203 204 203 201 200 199 197 198 199 202 202 203 207 209 207 202 198 200 204 200 198 200 200 200 201 205 213 216 214 213 217 223 227 226 220 217 218 223 231 236 240 245 247 242 243 250 257 266 270 275
260 250 237 224 249 279 258 266 282 290 291 307 335 99 168 288 326 348 328 323 319 305 286 231 227 229 235 252 269 268 269 276 282 271 268 281 274 269 246 227 220 206 200 196 201 205 204 204 203 205 204 204 202 201 201 202 204 204 205 209 209 209 207 204 204 206 204 201 202 203 203 204 211 220 223 222 223 229 238 240 239 237 234 233 238 245 247 248 248 249 251 251 255 262 269 273 278
263 251 224 201 233 283 23 277 274 257 284 341 317 333 170 284 319 312 303 306 309 300 253 216 242 240 243 254 261 261 279 294 301 287 273 286 284 268 248 230 223 214 207 199 203 206 207 206 203 204 206 207 205 205 205 203 205 204 206 209 207 207 208 206 206 207 206 205 205 206 207 213 221 228 230 232 235 243 253 253 249 247 246 244 246 251 254 254 251 251 255 259 262 268 272 275 276
250 232 193 173 185 144 212 251 241 250 281 323 289 308 325 296 302 305 302 303 299 280 234 219 252 285 265 257 250 255 285 297 298 297 292 292 288 273 256 236 225 219 213 205 206 207 210 208 205 205 206 208 207 208 207 206 207 206 206 209 208 207 206 204 206 207 207 208 210 211 214 223 231 234 238 245 248 253 259 260 255 253 253 253 254 258 261 261 259 259 263 266 270 273 275 275 274
204 171 140 155 131 185 254 263 265 271 283 240 274 296 311 314 307 303 305 310 295 243 227 221 247 285 270 268 266 272 294 298 295 297 296 293 288 277 261 240 226 221 217 211 208 208 210 209 207 207 207 210 210 210 209 208 208 208 208 209 210 206 204 203 204 207 209 210 214 219 223 231 237 241 248 255 259 260 260 260 258 255 255 258 262 265 266 266 268 271 273 273 275 275 274 274 272
182 160 152 203 177 211 260 266 268 277 248 238 269 273 288 303 304 296 298 303 284 270 241 230 233 269 275 268 269 289 307 308 302 303 300 294 286 275 263 243 228 223 222 217 213 210 211 210 210 210 211 214 213 213 210 209 210 211 209 209 208 203 202 204 204 206 210 213 219 227 233 240 244 248 254 259 264 263 257 257 260 257 256 260 262 265 267 271 274 275 275 274 274 273 271 270 270
171 166 160 223 230 233 256 264 269 262 244 254 264 261 272 289 292 283 281 276 273 272 249 237 217 230 299 268 266 294 309 315 312 311 307 297 287 271 260 246 231 226 226 222 218 213 213 212 213 213 215 217 217 215 210 209 213 214 211 209 209 206 206 208 209 210 214 220 227 235 243 248 251 252 259 264 264 261 258 258 260 258 256 256 257 263 269 274 275 273 272 271 268 267 266 268 271
162 168 155 201 228 250 253 257 262 237 236 249 269 271 274 280 278 267 269 279 277 265 255 238 217 234 280 287 276 298 314 323 325 321 317 305 291 273 259 246 234 229 229 227 222 218 216 215 214 215 217 219 219 217 214 214 217 218 215 213 214 214 214 214 215 218 223 229 234 241 247 252 256 259 266 271 264 260 260 259 259 258 255 254 255 261 265 267 266 264 263 263 262 264 266 269 274
166 154 158 204 229 258 270 275 269 270 265 267 275 269 272 267 258 251 246 273 275 258 252 223 215 234 255 279 275 296 315 322 331 334 332 318 300 276 258 244 237 232 230 229 226 222 221 218 217 217 219 221 221 221 222 223 224 223 221 219 220 220 221 221 222 226 230 233 234 242 250 254 257 262 266 267 262 260 260 259 258 253 251 249 248 247 245 245 246 249 250 253 257 260 263 266 270
199 150 188 243 244 265 292 296 283 295 290 272 264 213 234 215 210 252 239 272 278 258 244 217 221 227 237 257 268 295 308 310 326 334 331 324 308 282 258 244 240 235 230 228 227 225 224 222 220 221 221 223 225 226 227 228 228 228 226 226 226 226 227 228 229 232 235 235 236 241 249 252 253 256 257 256 255 254 254 255 253 248 243 235 229 226 224 226 232 237 239 242 245 249 253 258 262
219 157 216 253 266 283 286 288 287 302 293 256 173 174 212 195 210 281 261 270 266 262 260 224 230 246 259 266 276 289 297 300 313 317 314 313 305 289 267 249 242 236 231 227 226 226 226 224 223 223 224 225 227 228 230 230 230 229 229 230 231 232 234 236 236 238 240 240 240 239 243 247 248 246 245 247 245 245 246 246 243 239 231 223 218 216 218 221 224 226 228 230 230 235 238 244 251
212 185 239 281 125 270 238 276 281 283 297 82 169 222 231 218 233 263 265 284 265 242 281 251 230 243 266 267 277 275 281 301 304 306 304 300 294 286 271 254 243 237 235 232 228 228 227 226 225 225 225 225 227 228 229 230 229 228 229 230 232 234 236 240 240 241 242 241 241 239 241 243 242 238 238 239 238 237 236 235 230 225 221 218 219 219 221 221 220 219 216 218 219 224 229 234 240
198 179 236 256 199 245 215 256 299 266 287 42 226 219 233 253 247 245 271 293 287 263 280 271 222 227 249 244 274 275 283 297 299 299 297 293 288 279 269 258 247 240 239 237 233 230 228 228 227 227 226 225 227 228 229 229 229 228 229 231 233 234 236 239 241 242 241 240 240 239 239 239 236 234 234 234 232 230 226 224 221 218 217 217 220 221 222 222 218 215 213 216 220 224 230 233 237
187 174 218 253 225 238 206 209 229 254 259 173 224 214 248 259 230 254 284 281 281 281 277 254 227 240 255 252 270 283 287 292 292 293 292 289 284 276 269 260 252 245 242 240 236 233 230 229 228 228 228 227 228 229 229 230 230 229 230 232 233 235 236 238 239 241 240 239 238 238 237 235 233 232 230 229 225 221 217 217 217 216 217 217 220 221 221 221 217 217 220 224 230 236 241 244 245
179 184 243 251 236 228 196 191 199 277 291 234 211 209 244 262 245 271 289 274 270 278 273 261 250 253 262 265 274 282 286 288 288 288 286 285 281 275 269 261 256 251 247 244 240 237 233 231 230 230 230 230 230 230 230 231 231 231 231 233 233 234 236 237 238 240 239 236 236 236 234 232 231 229 226 223 218 214 212 213 215 215 216 217 218 219 219 217 217 221 227 234 241 247 250 254 255
183 206 247 248 256 233 196 212 212 270 292 269 227 210 240 269 280 285 288 268 259 270 271 266 264 264 267 271 276 280 285 286 285 284 282 281 279 276 271 265 260 255 253 249 245 242 238 236 233 232 233 232 232 231 232 232 232 231 231 233 233 233 235 237 238 238 237 234 234 233 232 231 230 227 223 218 214 210 210 212 214 214 214 216 216 216 216 215 218 224 231 239 245 251 255 258 259
202 232 242 246 253 216 186 225 223 227 272 288 283 256 251 269 279 280 278 270 262 270 273 264 261 270 275 277 279 279 281 282 282 282 280 278 277 276 274 270 265 260 256 254 252 248 243 240 238 236 235 234 233 233 234 233 233 232 231 232 232 233 234 236 238 238 237 234 234 233 231 231 228 226 222 216 212 211 211 212 213 214 213 215 215 214 214 215 220 225 232 240 247 253 258 261 262
215 221 244 251 246 236 218 233 235 241 269 288 283 276 268 268 268 260 266 275 270 263 269 263 256 271 281 286 289 283 279 281 281 281 280 278 277 275 274 271 268 266 263 259 256 252 248 245 242 240 238 236 234 235 235 234 234 233 232 232 232 232 234 235 236 237 236 235 234 232 231 229 227 225 221 215 213 213 213 213 213 213 214 214 214 214 214 217 221 227 234 242 251 256 260 263 263
186 201 246 259 232 252 237 237 246 251 266 275 277 283 277 271 264 247 249 276 271 257 265 267 267 281 288 288 291 289 284 282 281 281 281 280 279 277 276 274 272 269 265 260 255 254 252 248 246 243 240 238 235 236 236 236 235 235 234 234 233 233 234 234 235 236 235 235 233 231 231 228 226 225 222 217 216 216 215 215 215 214 214 215 215 214 215 218 223 229 238 246 253 258 261 263 264
203 221 246 258 228 258 253 241 255 259 263 269 269 273 277 276 262 244 232 247 262 267 275 278 281 287 289 286 287 288 287 284 283 282 282 283 283 282 279 276 273 269 264 260 257 256 253 250 248 246 243 241 238 238 237 237 236 236 236 236 235 234 236 236 235 235 235 235 233 232 230 227 226 226 223 220 220 220 219 218 217 216 215 215 215 215 217 220 225 232 240 247 252 256 260 262 264
241 239 239 251 241 248 261 253 261 265 260 258 259 272 279 272 266 251 226 237 260 274 282 285 288 288 287 288 287 287 287 285 284 283 284 284 283 282 280 278 274 270 267 263 258 255 252 248 247 246 245 244 243 240 238 238 238 238 238 238 237 236 237 238 237 236 235 235 234 233 231 229 228 227 225 223 222 222 221 220 218 216 216 216 217 218 220 223 227 233 240 246 250 254 257 261 265
241 259 241 250 250 249 259 261 260 264 259 259 267 279 278 262 266 262 233 247 267 280 286 286 290 290 286 287 286 286 287 286 286 286 285 282 281 282 279 275 272 269 264 259 255 252 251 248 246 246 246 246 245 243 241 240 240 239 239 239 238 237 238 239 239 238 236 236 235 234 232 230 230 229 227 225 224 223 223 221 219 218 218 219 219 220 222 224 228 233 238 243 246 250 252 256 262
223 252 257 254 258 257 263 266 263 264 262 265 269 271 270 265 271 273 256 263 273 281 287 287 286 286 283 283 284 285 287 288 289 289 286 282 281 278 274 271 268 266 263 260 256 252 250 248 245 245 245 246 246 245 244 242 243 242 240 240 240 239 239 239 240 239 238 237 236 235 232 232 231 231 230 228 226 225 224 223 221 221 221 221 221 222 223 225 229 232 236 240 242 245 247 251 256
212 242 267 270 270 270 271 270 265 263 262 260 257 260 267 272 282 275 265 269 276 279 284 285 281 281 282 285 288 288 288 289 290 289 287 284 278 272 270 271 271 271 271 267 263 258 253 249 245 244 244 246 246 246 245 244 244 243 242 242 241 241 241 239 240 239 238 237 236 236 235 233 233 233 232 230 228 227 227 225 223 223 223 223 223 223 225 227 229 232 234 238 240 241 243 247 253
236 264 284 278 276 277 271 269 264 259 261 248 235 257 267 273 286 273 270 274 277 274 280 283 280 281 285 287 291 291 290 289 290 289 286 281 277 276 278 279 280 283 281 275 273 269 261 254 248 245 244 245 245 246 246 245 245 245 245 244 242 242 242 241 241 240 238 238 237 237 236 236 235 234 233 232 230 229 228 227 226 225 225 225 225 225 225 227 229 231 233 236 238 240 243 246 251
309 316 294 280 278 280 266 259 258 247 255 242 227 255 268 268 245 256 265 272 273 274 280 282 280 283 287 290 291 292 290 290 290 287 283 281 281 284 286 285 286 287 284 280 279 274 267 262 256 250 246 245 245 245 246 246 246 246 247 246 244 244 244 243 242 241 240 240 239 237 237 237 236 236 235 234 232 230 229 228 228 227 228 228 227 226 226 227 229 231 233 236 238 239 241 245 249
302 305 290 288 286 286 268 250 251 230 232 225 205 248 264 244 234 253 263 269 273 276 279 281 280 283 287 289 290 289 289 289 288 285 285 285 285 286 287 287 288 285 283 282 278 271 268 266 262 255 250 246 244 244 245 245 245 246 246 247 246 245 245 245 244 243 242 242 241 239 238 238 237 237 236 235 233 232 231 230 230 229 229 229 228 228 227 228 230 231 233 236 238 239 241 243 247
284 275 277 294 287 285 269 226 237 225 209 176 172 254 269 241 246 259 266 269 276 272 271 277 279 281 286 287 287 288 290 290 288 288 289 289 288 287 287 288 287 284 281 277 272 269 267 265 263 259 252 249 246 244 244 244 245 245 245 246 247 247 246 246 245 244 243 243 243 241 239 239 238 237 237 237 235 233 232 230 230 230 230 230 229 229 229 229 230 231 234 236 237 238 240 241 244
278 282 219 272 271 275 268 136 163 239 207 172 179 262 271 266 270 273 277 275 278 270 267 274 275 278 283 284 286 288 291 291 290 291 292 291 291 292 292 291 289 285 281 276 270 266 264 260 258 258 254 250 247 245 245 244 244 245 245 246 247 247 247 246 246 246 245 244 244 242 241 240 239 238 238 237 237 235 233 231 230 230 230 230 230 229 229 230 231 232 233 235 237 238 240 240 242
254 269 254 230 233 263 279 259 215 243 215 171 190 260 266 262 273 280 289 285 282 276 276 277 276 278 279 280 282 286 290 292 293 294 295 297 298 298 297 294 290 284 279 274 268 261 258 256 253 253 253 250 248 246 246 246 245 245 245 246 247 247 247 247 247 247 247 245 244 243 242 241 240 240 239 238 237 236 235 233 232 232 231 230 230 230 230 230 231 231 232 234 236 238 239 239 240
222 233 262 253 254 271 287 288 246 219 182 189 214 256 274 264 275 282 286 289 288 284 283 281 281 280 279 278 278 282 287 291 294 295 299 304 305 302 300 295 289 280 274 269 264 256 253 253 251 250 249 250 250 248 247 247 247 246 245 246 246 247 247 247 247 247 247 246 245 244 243 242 241 241 240 238 238 237 236 235 234 233 232 231 231 231 230 231 231 231 232 234 235 236 237 237 238
235 215 246 252 256 270 283 289 295 167 187 220 229 241 259 265 278 283 284 286 285 280 280 282 283 281 280 280 278 278 282 289 295 297 302 309 314 313 310 303 294 281 272 265 262 255 250 250 248 247 247 247 248 248 247 247 249 249 248 246 246 246 247 247 247 246 246 246 246 245 244 243 242 241 240 239 238 238 237 236 235 234 233 232 231 231 230 231 230 230 232 233 233 233 234 234 236
260 250 262 274 250 248 260 268 299 283 249 251 249 248 257 263 267 276 280 283 281 276 276 278 278 279 281 281 279 280 283 291 296 298 307 320 329 331 327 318 304 284 273 263 257 251 247 246 245 245 246 245 245 246 247 246 247 248 248 248 247 247 246 246 246 246 246 246 246 246 246 245 243 242 241 240 239 238 237 236 235 234 233 232 232 231 231 230 230 230 231 232 232 231 232 233 234
285 298 280 286 276 260 264 267 270 281 279 271 265 267 274 276 270 272 280 284 280 275 275 274 274 277 281 281 281 286 297 299 298 306 323 335 341 345 341 338 326 298 279 265 258 252 249 247 247 248 248 248 246 245 245 245 245 245 246 246 247 246 246 246 246 246 245 245 245 245 246 245 244 243 242 241 240 239 238 237 236 234 232 232 232 232 232 231 230 230 231 232 231 230 230 232 233
313 289 273 273 278 276 274 277 275 243 275 271 266 275 281 282 280 275 277 280 274 271 275 277 277 277 277 280 285 302 310 304 309 324 339 352 15 18 350 354 15 12 338 289 278 269 263 258 257 256 255 254 252 250 248 248 247 247 246 247 247 247 247 247 247 247 246 246 245 245 245 245 244 243 242 241 240 240 239 237 236 235 233 233 233 234 234 233 232 231 232 232 232 231 231 231 231
274 268 276 273 269 275 273 277 283 272 268 272 267 277 283 285 281 271 266 268 270 273 277 279 279 276 274 281 314 329 313 311 322 344 25 75 71 44 15 24 38 42 41 27 8 338 306 284 272 266 263 260 258 257 256 255 255 254 254 254 254 253 251 250 249 248 248 247 246 245 244 244 244 243 242 241 241 240 239 238 237 236 235 234 234 234 234 234 233 232 231 232 231 231 231 232 231
264 261 272 274 271 283 275 263 276 300 267 283 290 288 287 279 273 268 263 259 266 270 267 268 269 268 274 334 9 318 312 317 339 48 89 86 75 65 57 54 52 51 48 44 39 29 14 348 313 286 274 268 266 265 264 263 262 261 260 260 259 258 257 256 254 253 252 250 249 247 246 244 244 243 242 241 240 240 240 240 240 239 237 236 236 235 234 233 232 232 232 232 231 230 229 230 230
246 246 262 273 271 278 274 249 277 359 269 287 301 291 280 270 261 262 267 256 258 263 261 262 264 270 299 339 331 318 319 331 52 89 89 81 78 70 65 61 58 56 53 49 45 41 36 27 12 337 300 282 275 273 274 274 270 267 265 262 262 260 259 259 257 256 254 253 252 250 248 247 245 244 243 242 241 241 241 241 241 240 239 239 237 237 236 234 233 232 231 231 231 230 230 231 230
237 229 245 266 266 264 269 283 332 311 273 286 310 294 277 263 233 124 279 240 251 261 259 259 264 335 360 347 351 356 8 58 88 88 81 78 75 70 67 63 61 61 59 54 48 44 41 36 32 20 357 324 295 284 279 277 275 274 271 267 265 262 260 259 257 256 255 255 254 253 252 250 248 246 244 243 242 242 241 241 241 240 240 239 238 237 237 237 236 235 233 231 232 232 233 233 232
258 215 221 250 266 273 276 293 327 309 275 41 345 314 297 163 117 8 323 267 264 254 248 257 2 47 32 25 26 31 63 89 92 82 74 73 73 73 69 65 66 65 61 56 51 47 43 40 38 34 28 15 346 317 293 282 279 277 274 272 270 268 267 266 264 264 264 264 262 260 258 255 253 251 248 245 243 242 241 241 241 241 240 239 239 238 238 237 236 236 235 234 234 234 234 234 234
272 218 215 245 262 271 277 294 307 294 292 29 10 307 288 255 253 285 279 264 265 256 249 278 41 46 41 43 51 73 86 94 89 76 65 62 67 70 65 63 65 64 60 53 48 45 43 43 41 40 38 35 24 4 336 307 293 286 281 279 277 275 275 274 275 275 273 272 269 266 264 261 258 255 252 249 246 243 242 241 241 241 241 240 239 239 238 238 237 237 237 236 236 235 234 234 235
271 48 187 238 255 262 263 280 264 275 314 306 186 233 276 282 254 249 263 249 252 256 262 1 55 58 63 74 85 88 89 89 81 69 57 54 60 63 60 61 62 59 54 46 41 39 39 40 40 39 40 41 38 26 13 350 322 307 297 289 283 280 278 277 277 277 276 275 272 270 268 266 262 259 256 253 250 246 243 242 241 240 240 240 240 240 240 239 238 238 237 236 236 235 234 235 236
283 64 54 119 255 272 227 253 260 276 314 284 185 182 265 285 264 169 261 249 250 268 308 28 49 57 72 79 79 78 79 74 66 62 61 57 59 59 58 62 62 55 47 39 36 34 33 34 34 35 35 36 38 34 27 15 354 334 317 303 295 290 285 281 278 277 276 274 273 272 270 269 267 264 261 258 255 251 247 244 242 241 241 241 241 241 241 241 240 239 238 236 235 235 235 236 236
110 117 97 88 96 66 158 253 280 273 281 262 175 175 254 292 280 156 244 270 279 333 8 53 67 66 64 61 56 60 64 62 60 66 68 63 59 60 62 63 60 53 47 41 36 32 30 29 29 30 30 30 31 30 28 22 11 355 339 325 314 304 295 288 283 280 278 276 275 275 273 272 271 269 267 264 260 257 253 249 245 243 242 242 242 242 241 241 241 240 239 239 238 237 236 236 235
123 150 131 107 169 112 173 240 300 269 270 234 176 186 225 282 342 170 124 319 308 350 349 69 77 66 55 50 43 50 61 62 63 67 68 65 62 61 59 57 56 55 53 49 43 39 34 31 30 30 28 26 25 25 25 24 18 7 356 343 332 322 309 298 291 286 282 280 279 278 277 276 275 273 271 268 265 262 258 254 249 246 244 243 242 242 242 242 242 241 241 240 240 239 239 238 237
123 134 331 294 243 207 207 185 151 250 265 210 169 190 217 236 255 3 347 325 282 251 299 6 62 61 53 52 52 59 66 65 64 63 60 60 57 54 52 51 51 51 50 49 47 43 39 36 34 31 28 23 20 19 19 21 20 15 6 355 343 332 319 310 302 295 289 284 282 280 278 278 277 276 275 273 271 268 264 259 254 250 247 244 243 242 242 242 242 242 242 241 240 240 240 239 238
122 119 323 286 290 287 243 220 206 245 265 54 54 270 233 242 253 268 282 295 294 181 354 23 62 70 61 60 61 65 66 63 61 58 54 53 51 50 50 49 49 47 47 46 43 41 39 37 33 30 28 23 19 17 16 17 17 14 10 4 353 337 324 315 309 303 298 293 288 283 279 279 279 279 278 278 277 274 270 266 262 257 253 249 246 244 243 243 242 242 243 242 241 240 240 240 239
168 172 173 208 257 278 268 270 268 267 282 77 71 244 249 262 255 248 259 275 5 40 55 70 78 77 69 65 64 64 64 61 58 54 51 51 50 50 49 49 50 49 48 45 43 42 40 37 35 33 31 25 19 15 12 11 10 8 6 3 358 348 334 321 310 305 300 297 295 291 286 283 281 281 282 281 280 278 275 272 269 265 260 256 251 248 246 244 243 243 243 243 243 242 242 241 241
187 174 157 208 217 247 270 268 264 279 291 174 144 182 243 276 55 229 255 332 39 51 73 83 77 73 72 67 62 60 59 59 58 56 54 52 50 50 49 50 49 48 47 45 43 43 43 43 41 38 34 27 19 13 8 4 2 1 359 357 353 347 341 330 317 308 301 297 296 295 293 290 287 285 284 283 282 280 277 274 272 269 265 261 257 253 249 247 245 243 243 244 244 243 243 242 243
222 90 103 246 216 207 248 253 245 289 302 258 197 217 250 266 290 263 248 58 60 61 68 69 62 60 61 58 54 54 55 56 57 57 55 53 52 51 49 48 48 46 44 42 41 42 42 40 36 32 29 23 18 13 7 2 358 354 353 351 347 342 337 331 320 309 303 299 295 293 293 294 293 290 288 286 284 282 279 276 274 271 268 265 261 258 254 250 248 245 244 244 244 244 243 243 243
118 164 199 233 198 181 241 259 215 270 280 262 236 255 262 270 280 255 133 84 70 64 59 58 56 52 53 53 51 54 56 55 56 56 55 53 52 50 48 46 44 42 40 39 37 35 32 28 24 23 21 18 14 10 5 2 357 351 347 345 343 340 335 330 321 309 301 297 294 294 293 293 293 292 291 290 288 285 282 278 276 273 270 267 265 261 258 254 251 248 246 245 245 244 244 243 243
142 200 208 139 30 90 238 259 154 214 251 257 256 266 271 275 270 164 114 86 68 60 58 60 56 52 57 57 53 57 59 57 56 55 52 51 49 47 46 43 39 37 34 32 29 26 23 20 18 16 13 13 13 11 8 4 360 356 350 344 341 340 338 332 324 314 304 297 294 296 296 295 294 293 292 291 289 286 284 281 278 276 273 270 267 264 261 258 254 252 250 248 247 246 244 244 243
188 250 290 90 229 228 199 213 209 229 248 250 248 263 270 264 253 227 107 81 78 63 53 54 49 49 54 54 54 56 57 56 54 51 48 46 44 41 40 37 34 30 25 22 18 15 14 12 11 10 9 9 8 7 7 5 4 3 1 356 350 347 345 342 335 325 314 307 304 301 298 297 297 295 293 291 289 287 285 284 281 279 276 272 269 267 264 261 257 254 253 251 249 248 246 245 244
49 307 309 86 242 241 203 190 194 230 251 252 238 252 261 268 271 150 72 70 81 72 60 58 50 51 52 50 51 50 51 51 48 46 44 41 38 35 32 29 27 23 20 17 13 10 8 7 5 5 4 3 2 2 3 3 4 4 4 3 359 356 354 353 351 344 334 326 320 312 304 298 295 292 291 290 289 287 286 285 284 281 278 275 272 269 267 264 260 257 255 253 252 251 249 248 247
182 209 218 196 197 239 274 254 213 228 252 250 246 247 242 306 14 89 99 82 73 72 72 67 52 52 52 50 50 48 47 45 41 39 35 32 30 26 23 20 17 15 13 11 10 8 6 4 2 0 359 358 358 359 360 0 1 1 2 2 0 359 356 356 356 355 351 347 339 330 319 306 296 291 288 286 286 285 285 285 284 282 280 278 275 272 269 266 263 260 258 256 254 253 251 250 249
204 210 209 208 199 198 256 243 202 214 240 233 249 256 227 90 35 92 111 111 102 93 91 85 62 51 50 50 49 45 41 37 33 29 24 21 18 14 12 9 7 5 4 3 4 3 2 0 358 356 355 354 354 355 356 357 358 358 359 360 359 358 357 355 354 352 353 352 349 343 333 320 309 301 293 286 283 282 282 282 281 280 279 278 277 275 272 268 265 263 261 259 258 256 255 253 251